Language selection

Weather shortcuts

Lake Nipigon: Past 24 Hour Conditions

 

Welcome Island

02:00 AM EDT 25 June 2024
Disclaimer

This table is a summary of hourly weather conditions for the past 24 hours.
Please note that these observations might not always be representative of weather conditions over their associated marine area.

Date / Time
(EDT)
Wind(knots) Conditions Visibility(km) Pressure(kPa) Air tempC) Relative humidity(%) Dew pointC)
25 June 2024
2:00 SSW 16 gusts 21 N/A N/A 99.8 17 80 14
1:00 SSW 6 N/A N/A 100.2 16 82 13
0:00 S 6 N/A N/A 100.3 16 77 12
24 June 2024
23:00 S 5 N/A N/A 100.4 16 78 12
22:00 SSE 6 N/A N/A 100.5 16 77 12
21:00 SSE 7 N/A N/A 100.5 16 74 12
20:00 SSE 6 N/A N/A 100.6 15 82 12
19:00 SE 9 N/A N/A 100.6 16 82 12
18:00 SW 6 N/A N/A 100.8 17 72 12
17:00 SSW 9 N/A N/A 100.9 18 70 12
16:00 SSW 10 gusts 16 N/A N/A 101.0 17 71 12
15:00 SSW 9 gusts 16 N/A N/A 101.0 19 66 12
14:00 SSW 11 gusts 18 N/A N/A 101.1 19 67 13
13:00 SSW 11 gusts 17 N/A N/A 101.1 18 70 13
12:00 SSW 8 gusts 16 N/A N/A 101.3 17 78 13
11:00 S 7 N/A N/A 101.3 17 80 14
10:00 SSW 4 N/A N/A 101.3 17 83 14
9:00 E 2 N/A N/A 101.3 17 81 13
8:00 WNW 6 N/A N/A 101.3 15 88 13
7:00 WNW 6 N/A N/A 101.3 14 90 13
6:00 WNW 6 N/A N/A 101.3 13 95 13
5:00 WNW 8 N/A N/A 101.2 14 93 13
4:00 WNW 7 N/A N/A 101.2 14 94 13
3:00 WNW 3 N/A N/A 101.2 15 91 14
2:00 W 3 N/A N/A 101.2 16 89 14

Zoom-in to make a selection

Map of Great Lakes - Lake Superior marine weather areas Mid Superior - 45001 East Superior - 45004 West Superior - 45006 Slate Island - 45136 Lake Of the Woods - 45148 Kenora Airport Royal Island Armstrong Airport Caribou Island Marathon Airport Pukaskwa National Park Thunder Bay Airport Welcome Island Little Flatland Island Sault Ste. Marie Airport Wawa Airport
Legend:
buoy Buoy
land station Land Station

Great Lakes - Lake Superior Area

Another Region

Features

New Predicting and Alerting Coastal Flooding Program

Find out about coastal flooding coverage, forecasts and warnings in your region

Date modified: